TJS-4

Last updated on July 6, 2021, 3:31 p.m. UTC

1 44637U 19070A   21187.09429203 -.00000160  00000-0  00000+0 0  9996
2 44637   0.0371 125.2598 0001866   2.2721 274.2200  1.00272314  6434
UTC
Height (km)
Latitude
Longitude
Inclination
Orbital Period
UTC large
Height (km)
Speed (km/s)
/
Latitude / Longitude
Inclination (degrees)
Orbital Period (minutes)
Azimuth
Elevation
Range (km)
Doppler Factor
iOS Compass Heading
iOS Angle

Next 30 passes for location: Hong Kong

Rise time Rise Azimuth (degrees) Set time Set Azimuth (degrees) Duration Max altitude (degrees)

No matching passes for this satellites